Location: Stoke Bliss
(52.2667°N, 2.5167°W)
Time: 19:03:28
(UTC+00:00)

CSL-04 Debris - Pass Details

Date: 03 March 2021
Orbit: 826 x 848 km, 98.9° (Epoch: 17 April)

Event Time Altitude Azimuth Distance (km) Brightness Sun altitude
Rises 18:25:10 0° 145° (SE) 3,378 7.0 -5.7°
Reaches altitude 10° 18:27:34 10° 140° (SE) 2,451 6.3 -6.0°
Maximum altitude 18:32:48 51° 66° (ENE) 1,052 4.4 -6.8°
Drops below altitude 10° 18:38:06 10° 352° (N) 2,480 6.7 -7.6°
Sets 18:40:32 0° 347° (NNW) 3,422 7.5 -8.0°
